,,Stat6,,Stat2,,Stat8,,Stat9,,Stat10,,Wind1,,Wind1,
time,status,PA1M_AVG,status,PR1M_SUM,status,RH1M_AVG,status,SR1M_AVG,status,TA1M_AVG,status,W1dAve1m,status,W1sAve1m,
2007-09-02, 00:00:00,VALID,916.429,VALID,0,VALID,100,VALID,-0.101885,VALID,19.9664,VALID,167,VALID,0.800223,
2007-09-02, 00:01:00,VALID,916.432,VALID,0,VALID,100,VALID,-0.101885,VALID,19.9534,VALID,175,VALID,0.571181,
2007-09-02, 00:02:00,VALID,916.431,VALID,0,VALID,100,VALID,-0.118866,VALID,19.9344,VALID,139,VALID,0.443314,
2007-09-02, 00:03:00,VALID,916.449,VALID,0,VALID,100,VALID,-0.101885,VALID,19.911,VALID,144,VALID,0.497456,
2007-09-02, 00:04:00,VALID,916.447,VALID,0,VALID,100,VALID,-0.0849042,VALID,19.8972,VALID,134,VALID,0.348785,
2007-09-02, 00:05:00,VALID,916.448,VALID,0,VALID,100,VALID,-0.101885,VALID,19.901,VALID,147,VALID,0.31978,
2007-09-02, 00:06:00,VALID,916.455,VALID,0,VALID,100,VALID,-0.0849042,VALID,19.907,VALID,161,VALID,0.510789,
2007-09-02, 00:07:00,VALID,916.449,VALID,0,VALID,100,VALID,0,VALID,19.9159,VALID,148,VALID,0.668826,
2007-09-02, 00:08:00,VALID,916.455,VALID,0,VALID,100,VALID,0.0169808,VALID,19.9449,VALID,150,VALID,0.442522,
2007-09-02, 00:09:00,VALID,916.457,VALID,0,VALID,100,VALID,0,VALID,20.003,VALID,163,VALID,0.0397569,
2007-09-02, 00:10:00,VALID,916.462,VALID,0,VALID,100,VALID,0.0509425,VALID,20.0487,VALID,163,VALID,0.0445668,
2007-09-02, 00:11:00,VALID,916.451,VALID,0,VALID,99.9209,VALID,0.0169808,VALID,20.0779,VALID,167,VALID,0.0611328,
2007-09-02, 00:12:00,VALID,916.449,VALID,0,VALID,99.6887,VALID,-0.0169808,VALID,20.1104,VALID,179,VALID,0.120486,
2007-09-02, 00:13:00,VALID,916.43,VALID,0,VALID,99.4369,VALID,0.0339617,VALID,20.1296,VALID,160,VALID,0.815407,
2007-09-02, 00:14:00,VALID,916.393,VALID,0,VALID,98.8456,VALID,0,VALID,20.1423,VALID,145,VALID,1.00744,
2007-09-02, 00:15:00,VALID,916.352,VALID,0,VALID,98.6625,VALID,0.0339617,VALID,20.214,VALID,158,VALID,0.646257,
2007-09-02, 00:16:00,VALID,916.323,VALID,0,VALID,98.1628,VALID,0.0679233,VALID,20.2402,VALID,154,VALID,1.23365,
2007-09-02, 00:17:00,VALID,916.301,VALID,0,VALID,97.5956,VALID,0,VALID,20.2594,VALID,134,VALID,1.74653,
2007-09-02, 00:18:00,VALID,916.273,VALID,0,VALID,96.7424,VALID,0.0169808,VALID,20.2886,VALID,125,VALID,1.34242,
2007-09-02, 00:19:00,VALID,916.249,VALID,0,VALID,96.4105,VALID,0.0339617,VALID,20.3535,VALID,130,VALID,0.738567,
2007-09-02, 00:20:00,VALID,916.221,VALID,0,VALID,96.0176,VALID,0.0339617,VALID,20.3632,VALID,130,VALID,1.56726,
2007-09-02, 00:21:00,VALID,916.197,VALID,0,VALID,95.9031,VALID,0.0849042,VALID,20.3632,VALID,128,VALID,1.29102,
2007-09-02, 00:22:00,VALID,916.169,VALID,0,VALID,95.528,VALID,-0.0679233,VALID,20.3742,VALID,129,VALID,2.04358,
2007-09-02, 00:23:00,VALID,916.171,VALID,0,VALID,94.9711,VALID,-0.0339617,VALID,20.4294,VALID,141,VALID,2.16629,
2007-09-02, 00:24:00,VALID,916.15,VALID,0,VALID,94.5489,VALID,-0.0509425,VALID,20.4813,VALID,143,VALID,1.59375,
2007-09-02, 00:25:00,VALID,916.146,VALID,0,VALID,94.1445,VALID,0,VALID,20.5365,VALID,140,VALID,1.52401,
2007-09-02, 00:26:00,VALID,916.137,VALID,0,VALID,93.9983,VALID,-0.0849042,VALID,20.576,VALID,128,VALID,1.43803,
2007-09-02, 00:27:00,VALID,916.138,VALID,0,VALID,94.039,VALID,-0.0339617,VALID,20.5562,VALID,149,VALID,1.53988,
2007-09-02, 00:28:00,VALID,916.146,VALID,0,VALID,94.0746,VALID,-0.0509425,VALID,20.5562,VALID,143,VALID,1.57867,
2007-09-02, 00:29:00,VALID,916.144,VALID,0,VALID,94.0593,VALID,-0.0339617,VALID,20.553,VALID,130,VALID,1.78285,
2007-09-02, 00:30:00,VALID,916.148,VALID,0,VALID,94.053,VALID,-0.0169808,VALID,20.5365,VALID,138,VALID,1.49256,
2007-09-02, 00:31:00,VALID,916.157,VALID,0,VALID,94.0046,VALID,-0.0509425,VALID,20.5433,VALID,128,VALID,1.00019,
2007-09-02, 00:32:00,VALID,916.159,VALID,0,VALID,94.0085,VALID,-0.0679233,VALID,20.5265,VALID,138,VALID,1.58333,
2007-09-02, 00:33:00,VALID,916.152,VALID,0,VALID,94.0072,VALID,-0.0509425,VALID,20.5105,VALID,131,VALID,1.70015,
2007-09-02, 00:34:00,VALID,916.163,VALID,0,VALID,94.0186,VALID,-0.0339617,VALID,20.4943,VALID,125,VALID,1.01101,
2007-09-02, 00:35:00,VALID,916.183,VALID,0,VALID,93.7122,VALID,-0.0169808,VALID,20.4913,VALID,132,VALID,1.43125,
2007-09-02, 00:36:00,VALID,916.155,VALID,0,VALID,93.1336,VALID,-0.0679233,VALID,20.4806,VALID,149,VALID,1.31963,
2007-09-02, 00:37:00,VALID,916.15,VALID,0,VALID,92.5982,VALID,0.0849042,VALID,20.5285,VALID,142,VALID,1.28652,
2007-09-02, 00:38:00,VALID,916.135,VALID,0,VALID,92.2104,VALID,0.0339617,VALID,20.5639,VALID,143,VALID,1.25484,
2007-09-02, 00:39:00,VALID,916.136,VALID,0,VALID,92.0527,VALID,0.0679233,VALID,20.5966,VALID,143,VALID,1.12128,
2007-09-02, 00:40:00,VALID,916.109,VALID,0,VALID,91.6662,VALID,0,VALID,20.6098,VALID,155,VALID,1.19656,
2007-09-02, 00:41:00,VALID,916.108,VALID,0,VALID,91.3622,VALID,0.0339617,VALID,20.6226,VALID,163,VALID,0.781428,
2007-09-02, 00:42:00,VALID,916.108,VALID,0,VALID,91.2478,VALID,0.0849042,VALID,20.642,VALID,131,VALID,0.870276,
2007-09-02, 00:43:00,VALID,916.096,VALID,0,VALID,91.0113,VALID,0.0679233,VALID,20.6296,VALID,127,VALID,1.24734,
2007-09-02, 00:44:00,VALID,916.11,VALID,0,VALID,90.8409,VALID,0.0339617,VALID,20.6291,VALID,122,VALID,1.48238,
2007-09-02, 00:45:00,VALID,916.107,VALID,0,VALID,90.6018,VALID,0,VALID,20.6423,VALID,139,VALID,1.51048,
2007-09-02, 00:46:00,VALID,916.121,VALID,0,VALID,90.2178,VALID,0,VALID,20.6748,VALID,134,VALID,1.67292,
2007-09-02, 00:47:00,VALID,916.121,VALID,0,VALID,89.6163,VALID,0.0679233,VALID,20.7429,VALID,119,VALID,1.5585,
2007-09-02, 00:48:00,VALID,916.105,VALID,0,VALID,89.3289,VALID,0.0339617,VALID,20.7916,VALID,137,VALID,1.50367,
2007-09-02, 00:49:00,VALID,916.096,VALID,0,VALID,89.142,VALID,0.0509425,VALID,20.8108,VALID,142,VALID,1.34482,
2007-09-02, 00:50:00,VALID,916.089,VALID,0,VALID,89.376,VALID,0.0509425,VALID,20.8111,VALID,119,VALID,1.20658,
2007-09-02, 00:51:00,VALID,916.081,VALID,0,VALID,89.5769,VALID,0.0679233,VALID,20.7491,VALID,133,VALID,1.47557,
2007-09-02, 00:52:00,VALID,916.075,VALID,0,VALID,89.6163,VALID,-0.0169808,VALID,20.7245,VALID,129,VALID,1.50295,
2007-09-02, 00:53:00,VALID,916.087,VALID,0,VALID,89.9215,VALID,-0.0849042,VALID,20.715,VALID,108,VALID,1.0941,
2007-09-02, 00:54:00,VALID,916.089,VALID,0,VALID,90.2191,VALID,-0.0679233,VALID,20.6501,VALID,116,VALID,1.38317,
2007-09-02, 00:55:00,VALID,916.104,VALID,0,VALID,90.2242,VALID,-0.0339617,VALID,20.6244,VALID,127,VALID,1.56268,
2007-09-02, 00:56:00,VALID,916.089,VALID,0,VALID,90.125,VALID,-0.0509425,VALID,20.6531,VALID,112,VALID,1.23307,
2007-09-02, 00:57:00,VALID,916.093,VALID,0,VALID,90.2687,VALID,-0.0679233,VALID,20.6531,VALID,88,VALID,0.85245,
2007-09-02, 00:58:00,VALID,916.092,VALID,0,VALID,90.2903,VALID,-0.0509425,VALID,20.6176,VALID,119,VALID,1.36928,
2007-09-02, 00:59:00,VALID,916.081,VALID,0,VALID,90.4441,VALID,-0.0679233,VALID,20.5982,VALID,108,VALID,1.26308,
2007-09-02, 01:00:00,VALID,916.06,VALID,0,VALID,90.5382,VALID,-0.101885,VALID,20.5787,VALID,110,VALID,1.14134,
2007-09-02, 01:01:00,VALID,916.057,VALID,0,VALID,90.7582,VALID,-0.0509425,VALID,20.5625,VALID,98,VALID,1.4314,
2007-09-02, 01:02:00,VALID,916.027,VALID,0,VALID,89.732,VALID,-0.0509425,VALID,20.569,VALID,96,VALID,2.51328,
2007-09-02, 01:03:00,VALID,916.028,VALID,0,VALID,88.4617,VALID,-0.0679233,VALID,20.8221,VALID,105,VALID,1.87786,
2007-09-02, 01:04:00,VALID,916.022,VALID,0,VALID,88.4617,VALID,-0.101885,VALID,20.894,VALID,114,VALID,1.61052,
2007-09-02, 01:05:00,VALID,916.017,VALID,0,VALID,88.8953,VALID,-0.0849042,VALID,20.8481,VALID,109,VALID,1.5348,
2007-09-02, 01:06:00,VALID,916.008,VALID,0,VALID,89.1586,VALID,-0.0849042,VALID,20.8059,VALID,130,VALID,1.41226,
2007-09-02, 01:07:00,VALID,915.993,VALID,0,VALID,89.4002,VALID,-0.0679233,VALID,20.7775,VALID,130,VALID,1.34139,
2007-09-02, 01:08:00,VALID,915.986,VALID,0,VALID,89.4892,VALID,-0.118866,VALID,20.728,VALID,124,VALID,1.74833,
2007-09-02, 01:09:00,VALID,915.97,VALID,0,VALID,89.3798,VALID,-0.101885,VALID,20.7377,VALID,128,VALID,1.79364,
2007-09-02, 01:10:00,VALID,915.945,VALID,0,VALID,88.7084,VALID,-0.0849042,VALID,20.7869,VALID,135,VALID,2.24628,
2007-09-02, 01:11:00,VALID,915.932,VALID,0,VALID,88.3714,VALID,-0.118866,VALID,20.864,VALID,137,VALID,1.98438,
2007-09-02, 01:12:00,VALID,915.926,VALID,0,VALID,88.5075,VALID,-0.0849042,VALID,20.897,VALID,153,VALID,1.83887,
2007-09-02, 01:13:00,VALID,915.923,VALID,0,VALID,88.6372,VALID,-0.101885,VALID,20.8846,VALID,153,VALID,1.3541,
2007-09-02, 01:14:00,VALID,915.922,VALID,0,VALID,88.3752,VALID,-0.0849042,VALID,20.8681,VALID,158,VALID,1.46254,
2007-09-02, 01:15:00,VALID,915.943,VALID,0,VALID,88.2392,VALID,-0.101885,VALID,20.8973,VALID,150,VALID,1.34242,
2007-09-02, 01:16:00,VALID,915.937,VALID,0,VALID,88.3765,VALID,-0.101885,VALID,20.9262,VALID,119,VALID,0.967152,
2007-09-02, 01:17:00,VALID,915.941,VALID,0,VALID,88.4503,VALID,-0.101885,VALID,20.9033,VALID,147,VALID,1.07552,
2007-09-02, 01:18:00,VALID,915.952,VALID,0,VALID,88.5647,VALID,-0.101885,VALID,20.8908,VALID,119,VALID,0.917081,
2007-09-02, 01:19:00,VALID,915.962,VALID,0,VALID,88.7173,VALID,-0.101885,VALID,20.8781,VALID,152,VALID,1.04706,
2007-09-02, 01:20:00,VALID,915.943,VALID,0,VALID,88.5088,VALID,-0.101885,VALID,20.8748,VALID,151,VALID,1.15854,
2007-09-02, 01:21:00,VALID,915.965,VALID,0,VALID,88.2099,VALID,-0.0849042,VALID,20.9003,VALID,148,VALID,1.20647,
2007-09-02, 01:22:00,VALID,915.975,VALID,0,VALID,88.2468,VALID,-0.0849042,VALID,20.9522,VALID,112,VALID,1.15589,
2007-09-02, 01:23:00,VALID,915.956,VALID,0,VALID,88.4554,VALID,-0.0169808,VALID,20.9357,VALID,98,VALID,0.774528,
2007-09-02, 01:24:00,VALID,915.971,VALID,0,VALID,88.1807,VALID,-0.0339617,VALID,20.926,VALID,138,VALID,1.39427,
2007-09-02, 01:25:00,VALID,915.964,VALID,0,VALID,88.1794,VALID,-0.0849042,VALID,20.9552,VALID,152,VALID,1.21298,
2007-09-02, 01:26:00,VALID,915.948,VALID,0,VALID,88.1527,VALID,-0.0339617,VALID,20.9582,VALID,130,VALID,0.875182,
2007-09-02, 01:27:00,VALID,915.936,VALID,0,VALID,87.8959,VALID,-0.0509425,VALID,20.9852,VALID,111,VALID,1.82122,
2007-09-02, 01:28:00,VALID,915.926,VALID,0,VALID,88.1387,VALID,-0.0509425,VALID,20.9876,VALID,68,VALID,1.25127,
2007-09-02, 01:29:00,VALID,915.908,VALID,0,VALID,88.1044,VALID,-0.0509425,VALID,20.9517,VALID,92,VALID,1.4194,
2007-09-02, 01:30:00,VALID,915.897,VALID,0,VALID,87.9073,VALID,-0.0849042,VALID,20.9563,VALID,103,VALID,1.60156,
2007-09-02, 01:31:00,VALID,915.865,VALID,0,VALID,87.5487,VALID,-0.0849042,VALID,20.956,VALID,118,VALID,1.6293,
2007-09-02, 01:32:00,VALID,915.842,VALID,0,VALID,87.0057,VALID,-0.101885,VALID,21.0236,VALID,115,VALID,1.07107,
2007-09-02, 01:33:00,VALID,915.841,VALID,0,VALID,86.8023,VALID,-0.0509425,VALID,21.0818,VALID,85,VALID,1.36071,
2007-09-02, 01:34:00,VALID,915.84,VALID,0,VALID,86.8531,VALID,-0.0339617,VALID,21.101,VALID,98,VALID,0.929315,
2007-09-02, 01:35:00,VALID,915.832,VALID,0,VALID,86.23,VALID,-0.0679233,VALID,21.0948,VALID,112,VALID,1.45974,
2007-09-02, 01:36:00,VALID,915.835,VALID,0,VALID,85.7163,VALID,-0.0169808,VALID,21.1694,VALID,80,VALID,1.96836,
2007-09-02, 01:37:00,VALID,915.84,VALID,0,VALID,85.5815,VALID,-0.0679233,VALID,21.2243,VALID,102,VALID,1.39453,
2007-09-02, 01:38:00,VALID,915.858,VALID,0,VALID,85.5625,VALID,-0.0679233,VALID,21.2314,VALID,126,VALID,1.53942,
2007-09-02, 01:39:00,VALID,915.831,VALID,0,VALID,85.5917,VALID,-0.0339617,VALID,21.2376,VALID,111,VALID,1.83668,
2007-09-02, 01:40:00,VALID,915.82,VALID,0,VALID,85.6616,VALID,-0.0509425,VALID,21.2346,VALID,140,VALID,1.47425,
2007-09-02, 01:41:00,VALID,915.829,VALID,0,VALID,85.6006,VALID,-0.0169808,VALID,21.2311,VALID,122,VALID,1.54883,
2007-09-02, 01:42:00,VALID,915.801,VALID,0,VALID,85.3412,VALID,-0.0679233,VALID,21.2411,VALID,150,VALID,1.52992,
2007-09-02, 01:43:00,VALID,915.809,VALID,0,VALID,85.2039,VALID,-0.0509425,VALID,21.2636,VALID,140,VALID,2.05543,
2007-09-02, 01:44:00,VALID,915.817,VALID,0,VALID,85.1886,VALID,-0.0339617,VALID,21.279,VALID,139,VALID,1.61928,
2007-09-02, 01:45:00,VALID,915.811,VALID,0,VALID,85.6515,VALID,-0.0849042,VALID,21.2736,VALID,133,VALID,1.02943,
2007-09-02, 01:46:00,VALID,915.807,VALID,0,VALID,85.8867,VALID,-0.0849042,VALID,21.2246,VALID,122,VALID,0.916424,
2007-09-02, 01:47:00,VALID,915.804,VALID,0,VALID,86.0291,VALID,-0.0679233,VALID,21.1954,VALID,107,VALID,0.982376,
2007-09-02, 01:48:00,VALID,915.803,VALID,0,VALID,86.3063,VALID,-0.0339617,VALID,21.1662,VALID,140,VALID,0.988839,
2007-09-02, 01:49:00,VALID,915.813,VALID,0,VALID,86.6001,VALID,-0.0679233,VALID,21.1307,VALID,146,VALID,1.67188,
2007-09-02, 01:50:00,VALID,915.809,VALID,0,VALID,86.478,VALID,-0.0849042,VALID,21.0885,VALID,134,VALID,1.44922,
2007-09-02, 01:51:00,VALID,915.795,VALID,0,VALID,86.1487,VALID,-0.0679233,VALID,21.1042,VALID,140,VALID,1.78478,
2007-09-02, 01:52:00,VALID,915.781,VALID,0,VALID,86.3801,VALID,0.0339617,VALID,21.1391,VALID,147,VALID,1.00618,
2007-09-02, 01:53:00,VALID,915.795,VALID,0,VALID,86.2288,VALID,0.0339617,VALID,21.1026,VALID,138,VALID,1.5103,
2007-09-02, 01:54:00,VALID,915.77,VALID,0,VALID,85.8727,VALID,0.0679233,VALID,21.1321,VALID,144,VALID,1.07571,
2007-09-02, 01:55:00,VALID,915.767,VALID,0,VALID,85.8982,VALID,0.0339617,VALID,21.1619,VALID,144,VALID,1.00278,
2007-09-02, 01:56:00,VALID,915.759,VALID,0,VALID,85.8257,VALID,0.0339617,VALID,21.1646,VALID,142,VALID,1.36628,
2007-09-02, 01:57:00,VALID,915.753,VALID,0,VALID,85.7812,VALID,0.0169808,VALID,21.1716,VALID,131,VALID,1.56341,
2007-09-02, 01:58:00,VALID,915.733,VALID,0,VALID,85.8104,VALID,0.0849042,VALID,21.1781,VALID,142,VALID,1.06197,
2007-09-02, 01:59:00,VALID,915.745,VALID,0,VALID,85.7939,VALID,0.0339617,VALID,21.1648,VALID,139,VALID,1.39137,
2007-09-02, 02:00:00,VALID,915.732,VALID,0,VALID,85.5447,VALID,0,VALID,21.1456,VALID,135,VALID,1.85565,
2007-09-02, 02:01:00,VALID,915.719,VALID,0,VALID,85.3984,VALID,0.0679233,VALID,21.1781,VALID,135,VALID,1.37553,
2007-09-02, 02:02:00,VALID,915.72,VALID,0,VALID,85.2725,VALID,0.0169808,VALID,21.2003,VALID,137,VALID,1.10338,
2007-09-02, 02:03:00,VALID,915.728,VALID,0,VALID,85.1746,VALID,0.0169808,VALID,21.2298,VALID,143,VALID,1.44132,
2007-09-02, 02:04:00,VALID,915.722,VALID,0,VALID,85.1034,VALID,0.0339617,VALID,21.233,VALID,151,VALID,1.37742,
2007-09-02, 02:05:00,VALID,915.725,VALID,0,VALID,84.9648,VALID,0.0169808,VALID,21.2457,VALID,140,VALID,1.50799,
2007-09-02, 02:06:00,VALID,915.716,VALID,0,VALID,84.8783,VALID,0.0339617,VALID,21.2527,VALID,112,VALID,1.91185,
2007-09-02, 02:07:00,VALID,915.691,VALID,0,VALID,83.9793,VALID,-0.0849042,VALID,21.3415,VALID,117,VALID,2.10377,
2007-09-02, 02:08:00,VALID,915.692,VALID,0,VALID,83.3982,VALID,-0.101885,VALID,21.4624,VALID,104,VALID,2.09357,
2007-09-02, 02:09:00,VALID,915.686,VALID,0,VALID,83.5304,VALID,-0.101885,VALID,21.527,VALID,120,VALID,1.68438,
2007-09-02, 02:10:00,VALID,915.65,VALID,0,VALID,84.1217,VALID,-0.101885,VALID,21.4689,VALID,83,VALID,1.7252,
2007-09-02, 02:11:00,VALID,915.623,VALID,0,VALID,83.9323,VALID,-0.101885,VALID,21.4367,VALID,80,VALID,1.77725,
2007-09-02, 02:12:00,VALID,915.611,VALID,0,VALID,82.8527,VALID,-0.0849042,VALID,21.5565,VALID,97,VALID,2.47046,
2007-09-02, 02:13:00,VALID,915.558,VALID,0,VALID,83.3549,VALID,-0.101885,VALID,21.5914,VALID,100,VALID,1.51488,
2007-09-02, 02:14:00,VALID,915.523,VALID,0,VALID,83.8127,VALID,-0.101885,VALID,21.5114,VALID,85,VALID,1.37853,
2007-09-02, 02:15:00,VALID,915.508,VALID,0,VALID,84.4651,VALID,-0.135847,VALID,21.4332,VALID,102,VALID,1.29531,
2007-09-02, 02:16:00,VALID,915.473,VALID,0,VALID,84.8554,VALID,-0.101885,VALID,21.332,VALID,107,VALID,1.11966,
2007-09-02, 02:17:00,VALID,915.453,VALID,0,VALID,85.1594,VALID,-0.101885,VALID,21.2706,VALID,115,VALID,1.3205,
2007-09-02, 02:18:00,VALID,915.406,VALID,0,VALID,85.373,VALID,-0.101885,VALID,21.2484,VALID,128,VALID,1.30554,
2007-09-02, 02:19:00,VALID,915.394,VALID,0,VALID,85.2942,VALID,-0.0679233,VALID,21.2122,VALID,100,VALID,1.75502,
2007-09-02, 02:20:00,VALID,915.36,VALID,0,VALID,84.9483,VALID,-0.101885,VALID,21.2351,VALID,124,VALID,2.27611,
2007-09-02, 02:21:00,VALID,915.366,VALID,0,VALID,84.6622,VALID,-0.101885,VALID,21.2874,VALID,108,VALID,1.70011,
2007-09-02, 02:22:00,VALID,915.346,VALID,0,VALID,84.8275,VALID,0,VALID,21.3055,VALID,135,VALID,1.11097,
2007-09-02, 02:23:00,VALID,915.325,VALID,0,VALID,83.5444,VALID,-0.0169808,VALID,21.3674,VALID,96,VALID,2.53374,
2007-09-02, 02:24:00,VALID,915.328,VALID,0,VALID,83.8191,VALID,-0.0169808,VALID,21.4616,VALID,109,VALID,1.75651,
2007-09-02, 02:25:00,VALID,915.33,VALID,0,VALID,84.2654,VALID,0,VALID,21.4221,VALID,86,VALID,1.34468,
2007-09-02, 02:26:00,VALID,915.298,VALID,0,VALID,84.109,VALID,0,VALID,21.3569,VALID,95,VALID,1.35975,
2007-09-02, 02:27:00,VALID,915.292,VALID,0,VALID,84.2998,VALID,0,VALID,21.3891,VALID,140,VALID,1.16426,
2007-09-02, 02:28:00,VALID,915.257,VALID,0,VALID,83.8941,VALID,-0.0169808,VALID,21.3931,VALID,121,VALID,2.21973,
2007-09-02, 02:29:00,VALID,915.255,VALID,0,VALID,84.0556,VALID,0,VALID,21.4321,VALID,109,VALID,1.33434,
2007-09-02, 02:30:00,VALID,915.23,VALID,0,VALID,84.2654,VALID,0,VALID,21.3964,VALID,115,VALID,0.850074,
2007-09-02, 02:31:00,VALID,915.21,VALID,0,VALID,84.7626,VALID,0,VALID,21.3439,VALID,91,VALID,1.50764,
2007-09-02, 02:32:00,VALID,915.182,VALID,0,VALID,84.3735,VALID,-0.0169808,VALID,21.3112,VALID,148,VALID,1.96265,
2007-09-02, 02:33:00,VALID,915.195,VALID,0,VALID,84.7359,VALID,0,VALID,21.3442,VALID,149,VALID,0.937322,
2007-09-02, 02:34:00,VALID,915.188,VALID,0,VALID,85.0475,VALID,0,VALID,21.2947,VALID,165,VALID,0.991044,
2007-09-02, 02:35:00,VALID,915.202,VALID,0,VALID,85.2268,VALID,0.0169808,VALID,21.269,VALID,141,VALID,1.85003,
2007-09-02, 02:36:00,VALID,915.192,VALID,0,VALID,85.5739,VALID,-0.0169808,VALID,21.237,VALID,152,VALID,1.56875,
2007-09-02, 02:37:00,VALID,915.175,VALID,0,VALID,85.874,VALID,-0.118866,VALID,21.2027,VALID,194,VALID,0.704459,
2007-09-02, 02:38:00,VALID,915.178,VALID,0,VALID,86.0291,VALID,-0.101885,VALID,21.1697,VALID,181,VALID,1.07068,
2007-09-02, 02:39:00,VALID,915.157,VALID,0,VALID,85.9363,VALID,-0.101885,VALID,21.1437,VALID,167,VALID,2.02915,
2007-09-02, 02:40:00,VALID,915.138,VALID,0,VALID,85.5993,VALID,-0.118866,VALID,21.1507,VALID,154,VALID,2.17676,
2007-09-02, 02:41:00,VALID,915.126,VALID,0,VALID,85.6591,VALID,-0.101885,VALID,21.1829,VALID,138,VALID,1.06818,
2007-09-02, 02:42:00,VALID,915.106,VALID,0,VALID,85.6451,VALID,-0.101885,VALID,21.1835,VALID,137,VALID,0.678544,
2007-09-02, 02:43:00,VALID,915.102,VALID,0,VALID,85.8473,VALID,-0.101885,VALID,21.1873,VALID,164,VALID,0.474019,
2007-09-02, 02:44:00,VALID,915.102,VALID,0,VALID,85.9757,VALID,-0.118866,VALID,21.1808,VALID,142,VALID,0.595796,
2007-09-02, 02:45:00,VALID,915.096,VALID,0,VALID,85.5612,VALID,-0.101885,VALID,21.1705,VALID,92,VALID,1.81904,
2007-09-02, 02:46:00,VALID,915.097,VALID,0,VALID,84.8313,VALID,-0.0679233,VALID,21.1992,VALID,154,VALID,1.37227,
2007-09-02, 02:47:00,VALID,915.093,VALID,0,VALID,84.6863,VALID,-0.118866,VALID,21.2351,VALID,156,VALID,1.20617,
2007-09-02, 02:48:00,VALID,915.105,VALID,0,VALID,84.9928,VALID,-0.0679233,VALID,21.2649,VALID,120,VALID,1.49805,
2007-09-02, 02:49:00,VALID,915.089,VALID,0,VALID,85.0271,VALID,-0.0849042,VALID,21.2249,VALID,142,VALID,0.520597,
2007-09-02, 02:50:00,VALID,915.116,VALID,0,VALID,85.5218,VALID,-0.152827,VALID,21.2262,VALID,126,VALID,0.511719,
2007-09-02, 02:51:00,VALID,915.116,VALID,0,VALID,85.3018,VALID,-0.0679233,VALID,21.1732,VALID,98,VALID,1.66368,
2007-09-02, 02:52:00,VALID,915.095,VALID,0,VALID,85.1848,VALID,0,VALID,21.1713,VALID,94,VALID,0.790838,
2007-09-02, 02:53:00,VALID,915.096,VALID,0,VALID,85.5841,VALID,0.0169808,VALID,21.1819,VALID,107,VALID,1.01105,
2007-09-02, 02:54:00,VALID,915.121,VALID,0,VALID,85.0932,VALID,0,VALID,21.1524,VALID,149,VALID,0.866602,
2007-09-02, 02:55:00,VALID,915.128,VALID,0,VALID,84.3481,VALID,0,VALID,21.1949,VALID,123,VALID,1.81399,
2007-09-02, 02:56:00,VALID,915.109,VALID,0,VALID,84.062,VALID,0,VALID,21.3047,VALID,80,VALID,2.02511,
2007-09-02, 02:57:00,VALID,915.113,VALID,0,VALID,84.2451,VALID,0,VALID,21.3147,VALID,134,VALID,1.53924,
2007-09-02, 02:58:00,VALID,915.11,VALID,0,VALID,84.3341,VALID,0,VALID,21.2952,VALID,127,VALID,1.02517,
2007-09-02, 02:59:00,VALID,915.103,VALID,0,VALID,84.2247,VALID,-0.0339617,VALID,21.276,VALID,137,VALID,1.30139,
2007-09-02, 03:00:00,VALID,915.104,VALID,0,VALID,84.5032,VALID,0.0169808,VALID,21.2652,VALID,98,VALID,1.36068,
2007-09-02, 03:01:00,VALID,915.089,VALID,0,VALID,84.4091,VALID,-0.0339617,VALID,21.2498,VALID,99,VALID,1.19587,
2007-09-02, 03:02:00,VALID,915.078,VALID,0,VALID,84.7982,VALID,0.0169808,VALID,21.2433,VALID,62,VALID,1.39807,
2007-09-02, 03:03:00,VALID,915.072,VALID,0,VALID,84.7207,VALID,0.0169808,VALID,21.1913,VALID,98,VALID,1.13906,
2007-09-02, 03:04:00,VALID,915.029,VALID,0,VALID,84.9152,VALID,0,VALID,21.1816,VALID,115,VALID,1.13891,
2007-09-02, 03:05:00,VALID,915.026,VALID,0,VALID,84.9076,VALID,0,VALID,21.1624,VALID,123,VALID,1.40606,
2007-09-02, 03:06:00,VALID,915.01,VALID,0,VALID,85.0309,VALID,0,VALID,21.1689,VALID,119,VALID,1.2302,
2007-09-02, 03:07:00,VALID,914.987,VALID,0,VALID,85.387,VALID,-0.0509425,VALID,21.1313,VALID,116,VALID,0.965402,
2007-09-02, 03:08:00,VALID,914.982,VALID,0,VALID,85.6794,VALID,-0.0849042,VALID,21.0923,VALID,104,VALID,1.08703,
2007-09-02, 03:09:00,VALID,914.971,VALID,0,VALID,86.23,VALID,-0.0339617,VALID,21.0401,VALID,88,VALID,0.658156,
2007-09-02, 03:10:00,VALID,914.963,VALID,0,VALID,86.3114,VALID,-0.0339617,VALID,20.9619,VALID,122,VALID,1.02832,
2007-09-02, 03:11:00,VALID,914.961,VALID,0,VALID,86.2364,VALID,-0.0339617,VALID,20.949,VALID,100,VALID,1.39653,
2007-09-02, 03:12:00,VALID,914.958,VALID,0,VALID,85.9223,VALID,-0.0509425,VALID,20.9909,VALID,88,VALID,1.42569,
2007-09-02, 03:13:00,VALID,914.962,VALID,0,VALID,85.6998,VALID,-0.0509425,VALID,21.0269,VALID,115,VALID,1.31993,
2007-09-02, 03:14:00,VALID,914.957,VALID,0,VALID,85.5408,VALID,-0.101885,VALID,21.0469,VALID,121,VALID,1.39601,
2007-09-02, 03:15:00,VALID,914.946,VALID,0,VALID,85.6566,VALID,-0.0849042,VALID,21.0791,VALID,120,VALID,0.833984,
2007-09-02, 03:16:00,VALID,914.94,VALID,0,VALID,85.6693,VALID,-0.101885,VALID,21.0658,VALID,129,VALID,1.05069,
2007-09-02, 03:17:00,VALID,914.942,VALID,0,VALID,85.6553,VALID,-0.101885,VALID,21.0726,VALID,155,VALID,1.31306,
2007-09-02, 03:18:00,VALID,914.942,VALID,0,VALID,85.5001,VALID,-0.0679233,VALID,21.1085,VALID,114,VALID,1.00563,
2007-09-02, 03:19:00,VALID,914.947,VALID,0,VALID,85.1988,VALID,-0.118866,VALID,21.1548,VALID,123,VALID,1.24716,
2007-09-02, 03:20:00,VALID,914.94,VALID,0,VALID,85.0729,VALID,-0.101885,VALID,21.18,VALID,104,VALID,1.21076,
2007-09-02, 03:21:00,VALID,914.955,VALID,0,VALID,84.8567,VALID,-0.0509425,VALID,21.2281,VALID,115,VALID,1.24572,
2007-09-02, 03:22:00,VALID,914.957,VALID,0,VALID,84.7868,VALID,0.0339617,VALID,21.2265,VALID,112,VALID,1.39375,
2007-09-02, 03:23:00,VALID,914.954,VALID,0,VALID,84.8885,VALID,0.0679233,VALID,21.2327,VALID,123,VALID,0.873302,
2007-09-02, 03:24:00,VALID,914.965,VALID,0,VALID,85.0983,VALID,0.0509425,VALID,21.2135,VALID,103,VALID,0.906651,
2007-09-02, 03:25:00,VALID,914.962,VALID,0,VALID,85.3781,VALID,0.0509425,VALID,21.1746,VALID,124,VALID,0.868902,
2007-09-02, 03:26:00,VALID,914.969,VALID,0,VALID,85.5485,VALID,0.0509425,VALID,21.1454,VALID,126,VALID,0.812326,
2007-09-02, 03:27:00,VALID,914.96,VALID,0,VALID,85.6693,VALID,0.0509425,VALID,21.1226,VALID,132,VALID,0.688045,
2007-09-02, 03:28:00,VALID,914.961,VALID,0,VALID,85.7799,VALID,0.0169808,VALID,21.1099,VALID,127,VALID,1.06855,
2007-09-02, 03:29:00,VALID,914.956,VALID,0,VALID,85.6108,VALID,0.0339617,VALID,21.1126,VALID,131,VALID,1.78995,
2007-09-02, 03:30:00,VALID,914.965,VALID,0,VALID,85.4874,VALID,0.0509425,VALID,21.1946,VALID,116,VALID,1.3093,
2007-09-02, 03:31:00,VALID,914.969,VALID,0,VALID,85.3641,VALID,0.0679233,VALID,21.194,VALID,157,VALID,1.22428,
2007-09-02, 03:32:00,VALID,914.974,VALID,0,VALID,85.3921,VALID,0.0169808,VALID,21.197,VALID,149,VALID,0.653646,
2007-09-02, 03:33:00,VALID,914.99,VALID,0,VALID,85.4035,VALID,0.0339617,VALID,21.1873,VALID,120,VALID,0.698047,